STARLINK-11524, 62839

Orbit data source: Space-Track

STARLINK-11524, 62839 is a payload satellite owned by SpaceX/Seattle (US) in LEO that was launched on Mon, 27 Jan 2025 UTC via an FALCON 9 launch vehicle from the Air Force Eastern Test Range (AFETR). Payload-class satellites include a variety of spacecraft equipped with specific instruments for various scientific and technological missions. These include communications satellites like Starlink; space stations such as the ISS; scientific satellites like the Hubble; Earth observation satellites from companies like Planet Labs, Umbra, and HawkEye 360; GPS; miniature CubeSats for education and research; and military/defense satellites.

Loading next visibility...
Identifier
62839, 2025-019L
Orbit
LEO
Country
Flag of USUS
Related business
Manufacturer
SpaceX/Seattle
Mission
Operational Commercial Communications
Bus & Motor
STARLINK V2MD, Unknown motor
Mass
960 kg wet, ~910 kg dry
Launch date (UTC)
2025-01-27 (9 months ago)
Launch vehicle
FALCON 9
Launch site
Air Force Eastern Test Range (AFETR)
Object type
Payload
Rocket body
Debris
Shape & HBR
Box + 2 Pan, 18.1 m
Radar Cross Section
36.964 m², Large (>1 m²)

Expand to show TLE details & history
Last TLE update: 23 hours ago

TLE from 23 hours ago
0 STARLINK-11524
1 62839U 25019L   25292.13549451  .00465605  00000-0  34089-2 0  9999
2 62839  42.9993  79.6079 0001410 308.9085  51.1657 15.71005391 41612
Epoch: 2025-10-19T03:15Z
TLE epoch observation values (Epoch: 2025-10-19T03:15:06.725Z)
Latitude
-0.00002°
Longitude
2.97336°
Altitude
355.198 km
Speed
7.698 km/s
True Right ascension
05h 18m 25s
True Declination
0° 00' 00"
Sunlit
Object was in full shadow at epoch
Visualization orbit readout
Latitude
Unknown
Longitude
Unknown
Altitude
Unknown
Speed
Unknown
Apparent Right ascension
Unknown
Apparent Declination
Unknown
Sunlit
N/A
Visualization observer readout
Local Sidereal Time
21:03:48
Azimuth
Unknown
Elevation
Unknown
Doppler factor
Unknown
Orbital elements
Apogee altitude
358.954 km
Perigee altitude
357.054 km
Semi-major axis
6,736.141 km
Eccentricity
0.00014
Inclination
42.9993°
RAAN
79.6079°
Arg. of periapsis
308.9085°
True anomaly
51.17829°
Mean anomaly
51.1657°
Eccentric anomaly
51.17199°
Mean motion
3.92578 °/min
Orbital period
91.7 mins
BSTAR
0.0034089
Loading maneuver chart data...
Computing Atmospheric mass density...
Loading historical data...
Loading historical data...
Loading historical data...
Loading historical data...
Loading historical data...
Loading historical data...
Loading historical data...

Documentation

Showing up to 5 results
|